North Adams, MA

12:02 AM EST on February 22, 2017 (GMT -0500)
Harriman And West

Weather History for KAQW - November, 2012

Change the Weather History Date:

Tuesday, November 13, 2012

  Actual Average Record
Temperature  
Mean Temperature 50 °F -  
Max Temperature 64 °F 44 °F 64 °F (2005)
Min Temperature 34 °F 28 °F 16 °F (2001)
Degree Days  
Heating Degree Days 16    
Moisture  
Dew Point 35 °F    
Average Humidity 78    
Maximum Humidity 93    
Minimum Humidity 53    
Precipitation  
Precipitation 0.53 in - - ()
Sea Level Pressure  
Sea Level Pressure 30.30 in    
Wind  
Wind Speed 9 mph (West)    
Max Wind Speed 18 mph    
Max Gust Speed 34 mph    
Visibility 7 miles    
Events Rain    
Averages and records for this station are not official NWS values.
T = Trace of Precipitation, MM = Missing Value Source: NWS Daily Summary

Daily Weather History Graph

Daily Weather History Graph

Search for Another Location

Airport or City:

Trip Planner

Search our weather history database for the weather conditions in past years. The results will help you decide how hot, cold, wet, or windy it might be!

Date:

Astronomy

Nov. 13, 2012 Rise Set
Actual Time 6:42 AM EST 4:31 PM EST
Civil Twilight 6:12 AM EST 5:01 PM EST
Nautical Twilight 5:37 AM EST 5:35 PM EST
Astronomical Twilight 5:04 AM EST 6:08 PM EST
Moon 6:17 AM EST (11/13) 4:21 PM EST (11/13)
Length of Visible Light 10h 49m
Length of Day
9h 48m
Waning Crescent, 0% of the Moon is Illuminated
Nov 13
Waning Crescent
Nov 13
New
Nov 20
First Quarter
Nov 28
Full
Dec 6
Last Quarter

Hourly Weather History & Observations

Time (EST) Temp. Windchill Dew Point Humidity Pressure Visibility Wind Dir Wind Speed Gust Speed Precip Events Conditions
12:52 AM 64.9 °F - 50.0 °F 58% 30.12 in 10.0 mi SSW 18.4 mph 34.5 mph N/A   Overcast
2:42 AM 50.0 °F - 42.8 °F 76% 30.18 in 7.0 mi WNW 8.1 mph 21.9 mph 0.02 in Rain Light Rain
2:46 AM 48.2 °F - 44.6 °F 87% 30.18 in 1.8 mi Variable 5.8 mph 21.9 mph 0.09 in Rain Heavy Rain
2:52 AM 48.0 °F - 44.1 °F 86% 30.19 in 1.2 mi Variable 5.8 mph 17.3 mph 0.14 in Rain Heavy Rain
2:57 AM 48.2 °F - 44.6 °F 87% 30.18 in 2.0 mi NNW 10.4 mph 19.6 mph 0.02 in Rain Rain
3:07 AM 46.4 °F 41.5 °F 42.8 °F 87% 30.19 in 5.0 mi WNW 10.4 mph 20.7 mph 0.04 in Rain Light Rain
3:52 AM 45.0 °F 42.6 °F 41.0 °F 86% 30.23 in 4.0 mi Variable 4.6 mph - 0.11 in Rain Light Rain
4:28 AM 44.6 °F 41.4 °F 41.0 °F 87% 30.22 in 6.0 mi Variable 5.8 mph - 0.03 in Rain Light Rain
4:52 AM 44.1 °F 39.5 °F 41.0 °F 89% 30.25 in 6.0 mi WSW 8.1 mph - 0.06 in Rain Light Rain
5:00 AM 44.6 °F 39.2 °F 41.0 °F 87% 30.24 in 5.0 mi WSW 10.4 mph - 0.00 in Rain Light Rain
5:22 AM 42.8 °F 38.6 °F 41.0 °F 93% 30.25 in 3.0 mi West 6.9 mph - 0.02 in Rain Light Rain
5:52 AM 42.1 °F 38.4 °F 39.9 °F 92% 30.25 in 3.0 mi WNW 5.8 mph - 0.05 in Rain Light Rain
6:07 AM 42.8 °F 38.6 °F 39.2 °F 87% 30.23 in 7.0 mi WSW 6.9 mph - 0.01 in Rain Light Rain
6:48 AM 42.8 °F 37.0 °F 39.2 °F 87% 30.26 in 10.0 mi WSW 10.4 mph - 0.03 in Rain Light Rain
6:52 AM 42.1 °F 36.6 °F 37.9 °F 85% 30.28 in 10.0 mi WSW 9.2 mph - 0.03 in   Overcast
7:50 AM 39.2 °F 34.2 °F 37.4 °F 93% 30.26 in 7.0 mi West 6.9 mph - 0.01 in Rain Light Rain
7:52 AM 39.9 °F 35.1 °F 36.0 °F 86% 30.27 in 6.0 mi West 6.9 mph - 0.01 in Rain Light Rain
8:17 AM 39.2 °F 33.0 °F 35.6 °F 87% 30.29 in 7.0 mi West 9.2 mph - 0.01 in Rain Light Rain
8:44 AM 37.4 °F 30.3 °F 35.6 °F 93% 30.32 in 5.0 mi West 10.4 mph - 0.04 in Rain Light Rain
8:52 AM 37.0 °F 29.8 °F 34.0 °F 89% 30.33 in 2.5 mi West 10.4 mph - 0.06 in Rain Rain
9:03 AM 37.4 °F 30.8 °F 33.8 °F 87% 30.31 in 4.0 mi West 9.2 mph - 0.01 in Rain Light Rain
9:14 AM 37.4 °F 30.3 °F 35.6 °F 93% 30.30 in 6.0 mi West 10.4 mph - 0.02 in Rain Light Rain
9:52 AM 36.0 °F 29.6 °F 34.0 °F 93% 30.32 in 4.0 mi West 8.1 mph - 0.05 in Rain Light Rain
9:59 AM 35.6 °F 29.2 °F 33.8 °F 93% 30.32 in 4.0 mi WSW 8.1 mph - 0.01 in Rain Light Rain
10:15 AM 35.6 °F 30.7 °F 32.0 °F 87% 30.31 in 9.0 mi WSW 5.8 mph - 0.02 in Rain Light Rain
10:23 AM 35.6 °F 29.2 °F 33.8 °F 93% 30.32 in 10.0 mi WSW 8.1 mph - 0.02 in   Overcast
10:52 AM 37.9 °F 32.7 °F 34.0 °F 86% 30.32 in 10.0 mi WNW 6.9 mph - 0.02 in   Overcast
11:39 AM 39.2 °F 33.6 °F 33.8 °F 81% 30.28 in 10.0 mi WNW 8.1 mph - N/A   Scattered Clouds
11:52 AM 39.9 °F 32.5 °F 34.0 °F 79% 30.29 in 10.0 mi West 12.7 mph - N/A   Clear
12:52 PM 41.0 °F 36.4 °F 30.9 °F 67% 30.30 in 10.0 mi West 6.9 mph 23.0 mph N/A   Mostly Cloudy
1:01 PM 42.8 °F 36.2 °F 32.0 °F 66% 30.28 in 10.0 mi West 12.7 mph 18.4 mph N/A   Mostly Cloudy
1:20 PM 42.8 °F 36.6 °F 30.2 °F 61% 30.27 in 10.0 mi West 11.5 mph - N/A   Mostly Cloudy
1:52 PM 42.1 °F 34.9 °F 28.0 °F 58% 30.28 in 10.0 mi West 13.8 mph 21.9 mph N/A   Overcast
2:52 PM 42.1 °F 37.1 °F 28.0 °F 58% 30.31 in 10.0 mi West 8.1 mph - N/A   Overcast
3:52 PM 41.0 °F 36.4 °F 27.0 °F 57% 30.33 in 10.0 mi Variable 6.9 mph - N/A   Overcast
4:52 PM 39.9 °F 35.8 °F 26.1 °F 58% 30.35 in 10.0 mi West 5.8 mph - N/A   Overcast
5:52 PM 39.9 °F 34.5 °F 27.0 °F 60% 30.39 in 10.0 mi West 8.1 mph - N/A   Overcast
6:52 PM 39.0 °F 35.7 °F 23.0 °F 53% 30.41 in 10.0 mi Variable 4.6 mph 16.1 mph N/A   Overcast
7:52 PM 37.9 °F 35.5 °F 24.1 °F 57% 30.43 in 10.0 mi West 3.5 mph - N/A   Overcast
8:52 PM 37.9 °F - 24.1 °F 57% 30.45 in 10.0 mi Calm Calm - N/A   Overcast
9:52 PM 37.0 °F 34.5 °F 24.1 °F 59% 30.47 in 10.0 mi West 3.5 mph - N/A   Overcast
10:52 PM 37.0 °F 34.5 °F 24.1 °F 59% 30.47 in 10.0 mi NNW 3.5 mph - N/A   Overcast
11:52 PM 34.0 °F - 24.1 °F 67% 30.47 in 10.0 mi Calm Calm - N/A   Clear